This is the latest recevied weather packets stored in our database for station/object KI4NG. If no packets are shown the sender has not sent any weather packets the latest 10 day(s).
| Time | Temp. | Humidity | Pressure | Rain* | Wind** | Luminosity | Snow |
|---|---|---|---|---|---|---|---|
| 1777934090 | 22.78° C | 56% | 1012.5 hPa | 0 mm | - | 85 W/m² | - |
| 1777933786 | 23.33° C | 56% | 1012.3 hPa | 0 mm | - | 281 W/m² | - |
| 1777933483 | 23.33° C | 56% | 1012.4 hPa | 0 mm | - | 297 W/m² | - |
| 1777933181 | 23.33° C | 55% | 1012.5 hPa | 0 mm | - | 321 W/m² | - |
| 1777932878 | 23.33° C | 55% | 1012.6 hPa | 0 mm | - | 171 W/m² | - |
| 1777932574 | 23.33° C | 55% | 1012.5 hPa | 0 mm | - | 336 W/m² | - |
| 1777932271 | 23.33° C | 54% | 1012.5 hPa | 0 mm | - | 329 W/m² | - |
| 1777931968 | 23.89° C | 54% | 1012.3 hPa | 0 mm | - | 367 W/m² | - |
| 1777931665 | 23.89° C | 53% | 1012.5 hPa | 0 mm | - | 406 W/m² | - |
| 1777931361 | 24.44° C | 53% | 1012.7 hPa | 0 mm | - | 428 W/m² | - |
| 1777931058 | 24.44° C | 51% | 1012.3 hPa | 0 mm | - | 479 W/m² | - |
| 1777930755 | 24.44° C | 47% | 1012.2 hPa | 0 mm | - | 498 W/m² | - |
| 1777930450 | 23.89° C | 46% | 1012.3 hPa | 0 mm | - | 436 W/m² | - |
| 1777930149 | 23.89° C | 43% | 1012.4 hPa | 0 mm | - | 451 W/m² | - |
| 1777929844 | 24.44° C | 44% | 1012.4 hPa | 0 mm | - | 457 W/m² | - |
| 1777929542 | 24.44° C | 42% | 1012.5 hPa | 0 mm | - | 465 W/m² | - |
| 1777929238 | 24.44° C | 43% | 1012.5 hPa | 0 mm | - | 491 W/m² | - |
| 1777928935 | 24.44° C | 44% | 1012.5 hPa | 0 mm | - | 507 W/m² | - |
| 1777928632 | 24.44° C | 44% | 1012.5 hPa | 0 mm | - | 506 W/m² | - |
| 1777928329 | 25° C | 48% | 1012.7 hPa | 0 mm | - | 484 W/m² | - |
| 1777928027 | 24.44° C | 45% | 1012.7 hPa | 0 mm | - | 453 W/m² | - |
| 1777927725 | 24.44° C | 46% | 1012.5 hPa | 0 mm | - | 370 W/m² | - |
| 1777927423 | 24.44° C | 45% | 1012.8 hPa | 0 mm | - | 414 W/m² | - |
| 1777927122 | 24.44° C | 49% | 1012.8 hPa | 0 mm | - | 533 W/m² | - |
| 1777926819 | 24.44° C | 45% | 1012.8 hPa | 0 mm | - | 553 W/m² | - |
* Rain latest hour (hover to see other rain measurements)
** Current wind speed in m/s (hover to see current wind gust speed)